Weather reports worldwide

Advertisment
Vigna Di Valle, Italy (16224): temperature & dewpoint: 16.02.2019 22:00:00 - 22.02.2019 22:00:00 (CET)Vigna Di Valle, Italy (16224): wind speed: 16.02.2019 22:00:00 - 22.02.2019 22:00:00 (CET)Vigna Di Valle, Italy (16224): wind direction: 16.02.2019 22:00:00 - 22.02.2019 22:00:00 (CET)Vigna Di Valle, Italy (16224): reduced air pressure: 16.02.2019 22:00:00 - 22.02.2019 22:00:00 (CET)Vigna Di Valle, Italy (16224): visibility: 16.02.2019 22:00:00 - 22.02.2019 22:00:00 (CET)Vigna Di Valle, Italy (16224): sunshine duration: 16.02.2019 22:00:00 - 22.02.2019 22:00:00 (CET)
Date & Time tt [°C] td [°C] ff [km/h] ff [kn] dd ppp [hPa] vv [km] sd [min]
22.02.2019 22:00:00 11,3 2,7 11 6 N 1023,4 - 0
22.02.2019 21:00:00 11,4 2,7 13 7 NNE 1022,7 - 0
22.02.2019 20:00:00 11,8 3,4 9 5 N 1022,4 - 0
22.02.2019 19:00:00 13,1 3,1 4 2 N 1021,9 20 0
22.02.2019 18:00:00 13,5 3,1 5 3 N 1021,6 20 24
22.02.2019 17:00:00 15,9 1,5 5 3 N 1020,6 20 60
22.02.2019 16:00:00 16,2 3,2 4 2 N 1020,6 20 60
22.02.2019 15:00:00 15,7 3,8 8 4 NE 1021,0 20 54
22.02.2019 14:00:00 14,5 6,0 9 5 NE 1021,8 20 60
22.02.2019 13:00:00 13,3 5,7 8 4 NE 1022,6 20 60
22.02.2019 12:00:00 12,2 5,8 11 6 NNE 1023,2 20 60
22.02.2019 11:00:00 10,5 5,2 11 6 NE 1023,9 20 60
22.02.2019 10:00:00 9,3 5,9 13 7 NE 1024,7 18 60
22.02.2019 09:00:00 7,5 5,6 13 7 ENE 1024,9 12 60
22.02.2019 08:00:00 6,0 5,3 8 4 E 1025,5 12 18
22.02.2019 07:00:00 5,4 4,8 5 3 NNE 1025,3 12 0
22.02.2019 06:00:00 6,2 5,7 9 5 NE 1025,3 - 0
22.02.2019 05:00:00 6,3 6,0 8 4 NE 1025,8 - 0
22.02.2019 04:00:00 6,5 5,9 5 3 N 1026,0 - 0
22.02.2019 03:00:00 6,6 6,3 4 2 NW 1026,7 - 0
22.02.2019 02:00:00 7,0 6,5 5 3 NNW 1027,2 - 0
22.02.2019 01:00:00 7,0 5,9 5 3 WNW 1027,3 - 0
22.02.2019 00:00:00 8,6 6,4 8 4 WNW 1027,2 - 0
21.02.2019 23:00:00 8,9 6,4 9 5 N 1027,4 - 0
21.02.2019 22:00:00 9,0 6,1 8 4 NNW 1027,6 - 0
21.02.2019 21:00:00 9,0 6,2 5 3 W 1027,6 - 0
21.02.2019 20:00:00 9,0 5,5 5 3 W 1027,4 - 0
21.02.2019 19:00:00 9,7 6,2 9 5 S 1027,4 18 0
21.02.2019 18:00:00 11,1 6,3 13 7 S 1027,1 20 24
21.02.2019 17:00:00 12,8 7,3 13 7 SSW 1026,6 20 60
21.02.2019 16:00:00 13,8 6,2 13 7 S 1026,8 20 60
21.02.2019 15:00:00 14,1 5,0 13 7 S 1027,0 20 60
21.02.2019 14:00:00 13,5 6,6 8 4 SE 1027,0 20 60
21.02.2019 13:00:00 14,1 7,0 8 4 ENE 1027,3 20 54
21.02.2019 12:00:00 13,7 6,2 5 3 ENE 1027,8 20 60
21.02.2019 11:00:00 11,2 5,4 5 3 ENE 1028,3 20 60
21.02.2019 10:00:00 9,3 5,4 11 6 NE 1028,2 20 60
21.02.2019 09:00:00 7,9 5,3 9 5 ENE 1028,3 20 60
21.02.2019 08:00:00 6,2 4,6 8 4 NE 1028,0 20 24
21.02.2019 07:00:00 5,4 4,6 8 4 NE 1027,5 20 0
21.02.2019 06:00:00 5,7 4,2 8 4 ENE 1027,3 - 0
21.02.2019 05:00:00 5,6 4,4 5 3 ENE 1027,2 - 0
21.02.2019 04:00:00 5,8 4,6 8 4 NE 1027,1 - 0
21.02.2019 03:00:00 6,5 4,7 8 4 N 1027,0 - 0
21.02.2019 02:00:00 7,2 4,8 8 4 WNW 1026,9 - 0
21.02.2019 01:00:00 7,5 4,5 8 4 NW 1026,8 - 0
21.02.2019 00:00:00 7,8 4,9 5 3 NW 1026,6 - 0
20.02.2019 23:00:00 7,8 4,4 5 3 NNW 1026,4 - 0
20.02.2019 22:00:00 8,4 4,6 8 4 WNW 1026,3 - 0
20.02.2019 21:00:00 8,4 4,3 5 3 NNW 1026,0 - 0
20.02.2019 20:00:00 8,5 3,8 5 3 SW 1025,7 - 0
20.02.2019 19:00:00 9,2 3,5 11 6 SW 1025,3 10 0
20.02.2019 18:00:00 10,1 5,2 8 4 NW 1024,4 12 24
20.02.2019 17:00:00 12,8 5,5 9 5 NNW 1023,9 12 60
20.02.2019 16:00:00 14,1 2,1 9 5 NNW 1023,9 12 60
20.02.2019 15:00:00 13,7 3,2 8 4 NW 1024,0 10 54
20.02.2019 14:00:00 13,2 2,7 8 4 NE 1024,2 10 54
20.02.2019 13:00:00 12,7 2,3 8 4 NNE 1024,6 10 54
20.02.2019 12:00:00 11,2 3,0 5 3 ENE 1025,2 10 60
20.02.2019 11:00:00 10,1 3,5 9 5 NE 1025,8 9 60
20.02.2019 10:00:00 8,4 4,7 8 4 NNE 1025,8 8 60
20.02.2019 09:00:00 7,2 4,7 8 4 NE 1025,6 6 60
20.02.2019 08:00:00 5,7 4,4 5 3 NNE 1025,2 4,5 24
20.02.2019 07:00:00 4,6 3,8 5 3 NNE 1024,6 3,0 0
20.02.2019 06:00:00 5,0 4,2 4 2 N 1024,5 - 0
20.02.2019 05:00:00 5,2 4,2 5 3 WNW 1024,6 - 0
20.02.2019 04:00:00 5,1 3,7 4 2 N 1024,5 - 0
20.02.2019 03:00:00 4,8 3,6 5 3 NW 1024,7 - 0
20.02.2019 02:00:00 5,4 2,6 4 2 WNW 1024,8 - 0
20.02.2019 01:00:00 5,7 2,2 4 2 NW 1024,7 - 0
20.02.2019 00:00:00 6,0 2,3 4 2 N 1024,6 - 0
19.02.2019 23:00:00 6,1 2,1 5 3 W 1024,5 - 0
19.02.2019 22:00:00 6,5 2,4 2 1 N 1024,6 - 0
19.02.2019 21:00:00 6,5 2,6 5 3 SW 1024,4 - 0
19.02.2019 20:00:00 7,3 2,7 5 3 S 1024,0 - 0
19.02.2019 19:00:00 8,3 3,4 8 4 SSW 1023,7 9 0
19.02.2019 18:00:00 9,2 3,1 5 3 S 1023,4 8 30
19.02.2019 17:00:00 10,7 3,4 5 3 N 1023,4 10 18
19.02.2019 16:00:00 10,1 3,5 5 3 NE 1023,7 10 0
19.02.2019 15:00:00 10,4 3,3 8 4 N 1023,9 9 0
19.02.2019 14:00:00 10,1 3,8 4 2 N 1024,2 8 0
19.02.2019 13:00:00 10,1 3,4 4 2 N 1024,5 9 0
19.02.2019 12:00:00 10,2 3,8 5 3 NNE 1025,3 9 0
19.02.2019 11:00:00 9,9 4,0 5 3 N 1025,5 9 0
19.02.2019 10:00:00 9,1 4,3 5 3 E 1025,2 9 0
19.02.2019 09:00:00 8,7 3,7 4 2 WSW 1024,9 8 0
19.02.2019 08:00:00 8,2 3,1 4 2 N 1024,7 8 0
19.02.2019 07:00:00 7,9 3,3 4 2 NW 1024,2 6 0
19.02.2019 06:00:00 7,9 3,7 4 2 NNW 1024,3 - 0
19.02.2019 05:00:00 8,0 6,0 2 1 N 1024,2 - 0
19.02.2019 04:00:00 8,2 6,4 2 1 N 1024,2 - 0
19.02.2019 03:00:00 8,3 5,9 2 1 N 1024,7 - 0
19.02.2019 02:00:00 8,3 6,1 2 1 NNW 1025,2 - 0
19.02.2019 01:00:00 8,3 6,4 2 1 NNW 1025,3 - 0
19.02.2019 00:00:00 8,3 6,5 4 2 - 1025,3 - 0
18.02.2019 23:00:00 8,3 6,5 5 3 SW 1025,4 - 0
18.02.2019 22:00:00 8,1 6,7 8 4 SW 1025,5 - 0
18.02.2019 21:00:00 7,6 6,6 8 4 SW 1025,6 - 0
18.02.2019 20:00:00 7,3 6,3 9 5 SSW 1025,5 - 0
18.02.2019 19:00:00 7,6 5,8 11 6 S 1025,2 10 0
18.02.2019 18:00:00 8,8 5,6 8 4 SSW 1024,9 10 12
18.02.2019 17:00:00 11,1 5,8 9 5 S 1024,7 10 29
18.02.2019 16:00:00 11,3 6,0 8 4 SSE 1025,2 10 18
18.02.2019 15:00:00 12,1 6,1 8 4 SE 1025,3 10 15
18.02.2019 14:00:00 10,8 6,3 5 3 N 1026,0 10 0
18.02.2019 13:00:00 10,4 6,8 4 2 N 1026,6 7 0
18.02.2019 12:00:00 9,9 8,3 5 3 N 1027,4 2,0 0
18.02.2019 11:00:00 7,7 7,7 8 4 NNW 1027,7 0,8 0
18.02.2019 10:00:00 7,0 7,0 8 4 N 1027,8 0,4 0
18.02.2019 09:00:00 6,3 6,3 9 5 N 1027,8 0,3 0
18.02.2019 08:00:00 6,1 6,1 8 4 N 1027,7 0,1 0
18.02.2019 07:00:00 5,9 5,9 8 4 N 1027,5 - 0
18.02.2019 06:00:00 6,0 6,0 8 4 N 1027,5 - 0
18.02.2019 05:00:00 5,8 5,8 8 4 NNW 1027,6 - 0
18.02.2019 04:00:00 6,4 6,4 5 3 - 1027,6 - 0
18.02.2019 03:00:00 6,5 6,5 5 3 NNE 1028,0 - 0
18.02.2019 02:00:00 7,0 7,0 4 2 N 1028,2 - 0
18.02.2019 01:00:00 6,8 6,7 4 2 N 1028,4 - 0
18.02.2019 00:00:00 6,4 6,0 2 1 WSW 1028,5 - 0
17.02.2019 23:00:00 7,1 5,6 5 3 NNW 1028,5 - 0
17.02.2019 22:00:00 7,1 3,6 5 3 NNW 1028,5 - 0
17.02.2019 21:00:00 8,7 3,4 5 3 WSW 1028,1 - 0
17.02.2019 20:00:00 7,8 5,8 11 6 SSW 1028,0 - 0
17.02.2019 19:00:00 8,5 6,6 11 6 SSW 1027,9 - 0
17.02.2019 18:00:00 10,0 7,3 11 6 SSW 1027,4 - 24
17.02.2019 17:00:00 12,5 8,4 13 7 S 1027,1 - 60
17.02.2019 16:00:00 13,5 8,6 13 7 S 1027,3 - 60
17.02.2019 15:00:00 14,1 8,3 8 4 S 1027,6 - 60
17.02.2019 14:00:00 14,2 7,7 4 2 N 1027,9 - 60
17.02.2019 13:00:00 14,6 6,0 5 3 NE 1028,4 - 60
17.02.2019 12:00:00 11,6 4,7 4 2 N 1029,7 - 60
17.02.2019 11:00:00 10,5 4,0 5 3 NE 1030,2 - 60
17.02.2019 10:00:00 8,2 4,7 5 3 NNE 1030,4 - 60
17.02.2019 09:00:00 7,0 5,7 4 2 NNE 1030,6 - 60
17.02.2019 08:00:00 4,9 4,3 4 2 NNE 1030,7 - 18
17.02.2019 07:00:00 4,1 3,7 5 3 N 1030,3 - 0
17.02.2019 06:00:00 4,0 3,4 5 3 NNE 1030,1 - 0
17.02.2019 05:00:00 4,4 3,7 4 2 NNE 1030,2 - 0
17.02.2019 04:00:00 4,5 3,4 5 3 N 1030,3 - 0
17.02.2019 03:00:00 4,5 3,4 4 2 N 1030,4 - 0
17.02.2019 02:00:00 4,7 3,5 5 3 NE 1030,6 - 0
17.02.2019 01:00:00 5,4 4,0 5 3 NW 1030,8 - 0
17.02.2019 00:00:00 6,2 4,6 5 3 NW 1030,7 - 0
16.02.2019 23:00:00 6,6 2,9 5 3 W 1030,6 - 0
16.02.2019 22:00:00 6,7 0,7 4 2 WSW 1030,5 - 0

tt = temperature
td = dewpoint
ff = wind speed
dd = wind direction
ppp = reduced air pressure
vv = visibility
sd = sunshine duration

Next stations